Погода в Тальке

Чили     35°25′30″S   71°39′29″W
темп.,
°C
ветер,
м/с
пор.,
м/с
влажн.,
%
обл.,
%
осадки,
мм/ч
давл.,
гПа
погр.,
м
8 марта, пн
пн800:00+18юз34760 0.0 101682
03:00+15юз24880 0.0 101481
06:00+13зюз22900 0.0 101448
09:00+15юз247414 0.0 1014241
12:00+26ююз45260 0.0 1013676
15:00+35юз3480 0.0 10111246
18:00+37юз3357 0.0 10112032
21:00+23з33273 0.0 101324
9 марта, вт
вт900:00+17сз11350 0.0 101523
03:00+14ссз11460 0.0 101423
06:00+12ссз00590 0.0 101223
09:00+16ю11440 0.0 101348
12:00+28з111833 0.0 1012585
15:00+36зюз12718 0.0 10121543
18:00+32з671267 0.0 1012827
21:00+20з222683 0.0 101423
10 марта, ср
ср1000:00+15зюз114397 0.0 101623
03:00+13зюз015197 0.0 101523
06:00+12з005898 0.0 101523
09:00+15в105489 0.0 101783
12:00+25зюз124065 0.0 1016820
15:00+31зюз232732 0.0 10172300
18:00+29зюз652538 0.0 10171297
21:00+19юз357169 0.0 1018128
11 марта, чт
чт1100:00+18юз3581100 0.0 1017185
03:00+16ююз2391100 0.0 101678
06:00+15юз2494100 0.0 1015137
09:00+15ююз248283 0.0 1015301
12:00+23ююз45380 0.0 1015794
15:00+30юз44170 0.0 10141506
18:00+30ююз43170 0.0 10132203
21:00+20з33400 0.0 101433
12 марта, пт
пт1200:00+14зюз22570 0.0 101525
03:00+12юз22640 0.0 101333
06:00+10ююз11720 0.0 101323
09:00+13ю11610 0.0 1013112
12:00+24зюз12280 0.0 1012595
15:00+32юз22160 0.0 10121507
18:00+32з53160 0.0 10111788
21:00+20зсз23370 0.0 101224